Location: Columbia
(38.9520°N, 92.3340°W)
Time: 23:53:58
(UTC-05:00)

Iridium 15 - Visible Passes

Search period start: 23 August 2017 00:00
Search period end: 02 September 2017 00:00
Orbit: 761 x 765 km, 86.4° (Epoch: 23 August)

Date Brightness Start Highest point End Pass type
(mag) Time Alt. Az. Time Alt. Az. Time Alt. Az.
23 Aug 8.1 02:10:44 23° NE 02:10:44 23° NE 02:12:55 10° NNE visible
23 Aug 7.9 03:50:54 18° NW 03:50:54 18° NW 03:52:52 10° NNW visible
24 Aug 8.7 01:33:11 13° NE 01:33:11 13° NE 01:34:02 10° NE visible
24 Aug 7.7 03:13:22 26° NNW 03:13:22 26° NNW 03:15:42 10° N visible
25 Aug 7.9 02:35:48 26° N 02:35:48 26° N 02:38:00 10° N visible
26 Aug 8.3 01:58:15 19° NNE 01:58:15 19° NNE 01:59:52 10° NNE visible
26 Aug 8.2 03:38:25 15° NW 03:38:25 15° NW 03:39:37 10° NNW visible
27 Aug 8.8 01:20:41 11° NE 01:20:41 11° NE 01:21:06 10° NE visible
27 Aug 8.1 03:00:51 20° NNW 03:00:51 20° NNW 03:02:32 10° N visible
28 Aug 8.2 02:23:17 21° N 02:23:17 21° N 02:24:54 10° N visible
29 Aug 8.6 01:45:42 16° NNE 01:45:42 16° NNE 01:46:49 10° NNE visible
29 Aug 8.5 03:25:53 12° NW 03:25:53 12° NW 03:26:23 10° NNW visible
30 Aug 8.9 01:08:07 10° NE 01:08:07 10° NE 01:08:09 10° NE visible
30 Aug 8.4 02:48:17 16° NNW 02:48:17 16° NNW 02:49:23 10° NNW visible
31 Aug 8.5 02:10:42 17° N 02:10:42 17° N 02:11:47 10° N visible
01 Sep 8.8 01:33:06 14° NNE 01:33:06 14° NNE 01:33:46 10° NNE visible
